Weather reports worldwide

Advertisment
Las Palmas De Gran Canaria, Spain (60030): temperature & dewpoint: 17.03.2019 09:00:00 - 23.03.2019 09:00:00 (WET)Las Palmas De Gran Canaria, Spain (60030): wind speed: 17.03.2019 09:00:00 - 23.03.2019 09:00:00 (WET)Las Palmas De Gran Canaria, Spain (60030): wind direction: 17.03.2019 09:00:00 - 23.03.2019 09:00:00 (WET)Las Palmas De Gran Canaria, Spain (60030): reduced air pressure: 17.03.2019 09:00:00 - 23.03.2019 09:00:00 (WET)Las Palmas De Gran Canaria, Spain (60030): visibility: 17.03.2019 09:00:00 - 23.03.2019 09:00:00 (WET)Las Palmas De Gran Canaria, Spain (60030): precipitation: 17.03.2019 09:00:00 - 23.03.2019 09:00:00 (WET)
Date & Time tt [°C] td [°C] ff [km/h] ff [kn] dd ppp [hPa] vv [km] rr [mm]
23.03.2019 09:00:00 18,5 11,0 37 20 N 1014,9 10 -
23.03.2019 08:00:00 17,3 11,3 37 20 N 1014,6 10 -
23.03.2019 07:00:00 16,9 11,2 41 22 N 1014,5 10 -
23.03.2019 06:00:00 16,9 11,1 39 21 N 1014,4 10 -
23.03.2019 05:00:00 16,9 11,7 34 18 N 1013,8 10 -
23.03.2019 04:00:00 16,8 11,8 39 21 N 1013,7 10 -
23.03.2019 03:00:00 16,8 11,5 35 19 N 1014,3 10 0,0
23.03.2019 02:00:00 17,0 12,2 31 17 N 1016,0 10 -
23.03.2019 01:00:00 17,2 11,8 34 18 N 1015,1 10 -
23.03.2019 00:00:00 17,5 12,4 34 18 N 1016,2 15 -
22.03.2019 23:00:00 17,3 11,9 41 22 N 1015,3 10 -
22.03.2019 22:00:00 17,5 11,4 42 23 N 1014,9 10 -
22.03.2019 21:00:00 17,7 12,0 31 17 N 1014,9 18 -
22.03.2019 20:00:00 17,8 11,9 34 18 N 1014,3 10 -
22.03.2019 19:00:00 18,0 11,4 37 20 N 1013,3 10 -
22.03.2019 18:00:00 18,8 12,1 46 25 NNE 1013,7 10 -
22.03.2019 17:00:00 19,4 11,9 44 24 N 1013,4 10 -
22.03.2019 16:00:00 20,1 11,4 54 29 NNE 1013,7 10 -
22.03.2019 15:00:00 20,6 11,6 52 28 N 1014,0 10 -
22.03.2019 14:00:00 19,7 10,5 35 19 N 1014,9 10 -
22.03.2019 13:00:00 20,0 10,1 44 24 NNE 1016,0 10 -
22.03.2019 12:00:00 18,2 10,1 34 18 N 1017,1 18 -
22.03.2019 11:00:00 18,4 10,4 44 24 NNE 1017,0 10 -
22.03.2019 10:00:00 18,4 10,7 48 26 N 1016,8 10 -
22.03.2019 09:00:00 17,1 10,0 44 24 N 1016,4 10 -
22.03.2019 08:00:00 17,0 10,0 42 23 N 1015,9 10 -
22.03.2019 07:00:00 16,8 10,4 42 23 N 1015,3 10 -
22.03.2019 06:00:00 16,8 10,6 39 21 N 1014,7 10 -
22.03.2019 05:00:00 16,8 10,5 34 18 N 1014,7 10 -
22.03.2019 04:00:00 17,0 10,5 41 22 N 1015,1 10 -
22.03.2019 03:00:00 17,0 10,9 39 21 N 1015,3 10 -
22.03.2019 02:00:00 17,1 10,8 39 21 N 1016,4 10 -
22.03.2019 01:00:00 17,2 10,7 34 18 N 1016,7 10 -
22.03.2019 00:00:00 17,1 11,0 26 14 N 1017,3 12 -
21.03.2019 23:00:00 17,3 11,3 34 18 N 1017,3 10 -
21.03.2019 22:00:00 17,4 11,7 28 15 N 1017,2 10 -
21.03.2019 21:00:00 17,6 11,9 37 20 N 1016,6 10 -
21.03.2019 20:00:00 17,9 12,4 31 17 N 1016,0 10 -
21.03.2019 19:00:00 18,2 12,6 41 22 N 1015,5 10 -
21.03.2019 18:00:00 19,1 12,7 39 21 N 1015,4 10 -
21.03.2019 17:00:00 20,2 12,9 41 22 NNE 1015,1 10 -
21.03.2019 16:00:00 20,6 12,7 44 24 NNE 1015,1 10 -
21.03.2019 15:00:00 20,9 12,0 42 23 NNE 1015,6 10 -
21.03.2019 14:00:00 21,3 11,5 39 21 N 1016,2 10 -
21.03.2019 13:00:00 21,1 11,9 37 20 N 1017,0 10 -
21.03.2019 12:00:00 21,0 12,2 39 21 NNE 1017,7 12 -
21.03.2019 11:00:00 19,6 12,5 39 21 NNE 1017,8 10 -
21.03.2019 10:00:00 18,9 12,4 35 19 NNE 1017,9 10 -
21.03.2019 09:00:00 18,8 12,8 41 22 N 1016,9 10 -
21.03.2019 08:00:00 17,4 12,4 31 17 N 1016,3 10 -
21.03.2019 07:00:00 17,0 12,0 28 15 N 1016,1 10 -
21.03.2019 06:00:00 17,1 12,3 24 13 N 1015,7 14 -
21.03.2019 05:00:00 17,0 11,8 22 12 N 1015,4 10 -
21.03.2019 04:00:00 16,9 11,8 22 12 N 1015,7 10 -
21.03.2019 03:00:00 16,8 11,9 22 12 N 1016,1 15 -
21.03.2019 02:00:00 17,1 12,4 22 12 N 1016,5 10 -
21.03.2019 01:00:00 17,3 12,3 34 18 N 1016,6 10 -
21.03.2019 00:00:00 17,5 12,8 29 16 N 1017,0 10 -
20.03.2019 23:00:00 17,5 13,0 24 13 N 1017,4 10 -
20.03.2019 22:00:00 17,6 12,8 31 17 N 1017,4 10 -
20.03.2019 21:00:00 17,6 12,2 29 16 N 1017,3 10 -
20.03.2019 20:00:00 17,8 12,4 28 15 N 1016,6 10 -
20.03.2019 19:00:00 18,2 12,3 26 14 N 1015,9 10 -
20.03.2019 18:00:00 19,2 12,8 37 20 N 1015,7 15 -
20.03.2019 17:00:00 19,7 12,5 41 22 NNE 1015,4 10 -
20.03.2019 16:00:00 21,2 12,3 34 18 N 1015,7 10 -
20.03.2019 15:00:00 20,8 12,6 39 21 NNE 1016,0 10 -
20.03.2019 14:00:00 21,1 11,7 39 21 NNE 1016,4 10 -
20.03.2019 13:00:00 21,2 12,5 37 20 NNE 1017,4 10 -
20.03.2019 12:00:00 20,6 12,2 39 21 NNE 1017,8 10 -
20.03.2019 11:00:00 20,1 11,8 37 20 NNE 1018,2 10 -
20.03.2019 10:00:00 19,3 11,3 37 20 N 1018,1 10 -
20.03.2019 09:00:00 17,8 11,1 28 15 N 1018,0 25 -
20.03.2019 08:00:00 16,3 11,0 28 15 N 1017,7 10 -
20.03.2019 07:00:00 15,9 10,6 29 16 N 1017,2 10 -
20.03.2019 06:00:00 15,8 10,3 22 12 N 1016,6 18 -
20.03.2019 05:00:00 16,0 10,4 26 14 N 1016,5 10 -
20.03.2019 04:00:00 15,8 10,0 18 10 N 1016,5 10 -
20.03.2019 03:00:00 16,2 10,4 22 12 N 1017,3 10 -
20.03.2019 02:00:00 16,4 9,7 18 10 N 1018,0 10 -
20.03.2019 01:00:00 17,0 10,8 26 14 N 1018,5 10 -
20.03.2019 00:00:00 17,0 10,2 18 10 N 1019,1 15 -
19.03.2019 23:00:00 17,1 10,2 24 13 N 1019,7 10 -
19.03.2019 22:00:00 17,3 10,8 29 16 N 1019,7 10 -
19.03.2019 21:00:00 17,5 10,8 35 19 N 1019,3 10 -
19.03.2019 20:00:00 17,6 10,8 34 18 N 1018,5 10 -
19.03.2019 19:00:00 17,8 10,7 29 16 N 1018,4 10 -
19.03.2019 18:00:00 18,5 10,2 42 23 NNE 1017,9 10 -
19.03.2019 17:00:00 19,5 11,6 48 26 NNE 1017,7 10 -
19.03.2019 16:00:00 20,1 10,6 50 27 NNE 1017,8 10 -
19.03.2019 15:00:00 20,4 10,2 46 25 NNE 1018,4 10 -
19.03.2019 14:00:00 20,2 11,4 44 24 NNE 1018,9 10 -
19.03.2019 13:00:00 20,8 9,8 39 21 NNE 1019,5 10 -
19.03.2019 12:00:00 19,4 10,7 39 21 N 1020,3 15 -
19.03.2019 11:00:00 19,4 9,6 39 21 N 1020,7 10 -
19.03.2019 10:00:00 19,1 10,1 39 21 NNE 1020,5 10 -
19.03.2019 09:00:00 17,6 10,3 41 22 N 1020,1 10 -
19.03.2019 08:00:00 17,1 10,7 31 17 N 1019,6 10 -
19.03.2019 07:00:00 17,0 10,8 24 13 N 1019,5 10 -
19.03.2019 06:00:00 17,1 10,6 37 20 N 1019,1 10 -
19.03.2019 05:00:00 17,2 11,8 34 18 N 1018,9 10 -
19.03.2019 04:00:00 17,4 11,8 24 13 N 1019,1 10 -
19.03.2019 03:00:00 17,5 12,1 31 17 N 1019,7 10 -
19.03.2019 02:00:00 17,6 12,0 22 12 N 1020,2 10 -
19.03.2019 01:00:00 18,1 9,8 34 18 N 1020,5 10 -
19.03.2019 00:00:00 17,9 10,9 34 18 N 1020,9 10 -
18.03.2019 23:00:00 18,0 9,7 26 14 N 1021,0 10 -
18.03.2019 22:00:00 17,7 11,8 34 18 N 1020,8 10 -
18.03.2019 21:00:00 17,7 11,8 35 19 N 1020,5 10 -
18.03.2019 20:00:00 17,8 11,2 26 14 N 1020,1 10 -
18.03.2019 19:00:00 18,2 11,5 37 20 N 1019,9 10 -
18.03.2019 18:00:00 19,2 10,9 34 18 N 1019,6 20 -
18.03.2019 17:00:00 20,1 10,8 46 25 NNE 1019,5 10 -
18.03.2019 16:00:00 20,3 10,9 46 25 NNE 1019,6 10 -
18.03.2019 15:00:00 21,0 11,0 46 25 NNE 1020,0 20 -
18.03.2019 14:00:00 21,1 10,7 41 22 NNE 1020,5 10 -
18.03.2019 13:00:00 21,3 10,6 39 21 NNE 1021,4 10 -
18.03.2019 12:00:00 20,6 10,7 44 24 NNE 1021,7 10 -
18.03.2019 11:00:00 19,8 11,2 42 23 NNE 1021,9 10 -
18.03.2019 10:00:00 19,4 10,7 28 15 N 1021,6 10 -
18.03.2019 09:00:00 18,0 11,2 34 18 N 1021,3 10 -
18.03.2019 08:00:00 17,0 10,9 24 13 N 1020,9 10 -
18.03.2019 07:00:00 16,4 10,5 24 13 N 1020,5 10 -
18.03.2019 06:00:00 16,2 10,6 18 10 N 1020,1 15 -
18.03.2019 05:00:00 16,5 11,8 22 12 N 1019,9 10 -
18.03.2019 04:00:00 16,7 11,5 29 16 N 1020,1 10 -
18.03.2019 03:00:00 17,1 12,3 24 13 N 1020,3 15 -
18.03.2019 02:00:00 17,2 11,7 29 16 N 1021,0 10 -
18.03.2019 01:00:00 17,3 11,9 22 12 N 1021,3 10 -
18.03.2019 00:00:00 17,4 12,2 26 14 N 1021,4 18 -
17.03.2019 23:00:00 17,3 11,9 22 12 N 1021,5 10 -
17.03.2019 22:00:00 17,6 12,0 26 14 N 1021,5 10 -
17.03.2019 21:00:00 17,8 11,5 28 15 N 1020,9 18 -
17.03.2019 20:00:00 17,9 11,0 34 18 N 1020,1 10 -
17.03.2019 19:00:00 18,1 12,3 26 14 N 1019,5 10 -
17.03.2019 18:00:00 19,2 12,3 39 21 N 1019,3 15 -
17.03.2019 17:00:00 20,1 12,5 37 20 N 1019,5 10 -
17.03.2019 16:00:00 20,8 12,7 37 20 N 1019,7 10 -
17.03.2019 15:00:00 21,5 12,7 42 23 N 1020,0 18 -
17.03.2019 14:00:00 22,1 13,0 46 25 NNE 1020,9 10 -
17.03.2019 13:00:00 22,1 12,1 41 22 N 1021,6 10 -
17.03.2019 12:00:00 22,3 12,2 35 19 N 1021,9 18 -
17.03.2019 11:00:00 21,1 11,3 39 21 N 1021,8 10 -
17.03.2019 10:00:00 20,5 11,5 37 20 N 1021,6 10 -
17.03.2019 09:00:00 18,9 11,3 39 21 N 1021,4 10 -

tt = temperature
td = dewpoint
ff = wind speed
dd = wind direction
ppp = reduced air pressure
vv = visibility
rr = precipitation

Next stations